TimeCST,TemperatureF,Dew PointF,Humidity,Sea Level PressureIn,VisibilityMPH,Wind Direction,Wind SpeedMPH,Gust SpeedMPH,PrecipitationIn,Events,Conditions,WindDirDegrees,DateUTC
12:54 AM,21.0,14.0,74,30.38,10.0,North,8.1,-,N/A,,Clear,10,2013-01-20 06:54:00
1:54 AM,17.6,10.4,73,30.35,10.0,NNE,8.1,-,N/A,,Clear,20,2013-01-20 07:54:00
2:54 AM,19.0,9.0,65,30.38,10.0,North,8.1,-,N/A,,Clear,10,2013-01-20 08:54:00
3:54 AM,18.0,10.0,71,30.38,10.0,North,6.9,-,N/A,,Clear,10,2013-01-20 09:54:00
4:54 AM,15.1,9.0,77,30.38,10.0,NE,3.5,-,N/A,,Clear,40,2013-01-20 10:54:00
5:54 AM,14.0,8.1,77,30.37,10.0,NE,5.8,-,N/A,,Clear,40,2013-01-20 11:54:00
6:54 AM,14.0,7.0,74,30.38,10.0,NE,6.9,-,N/A,,Clear,40,2013-01-20 12:54:00
7:54 AM,14.0,7.0,74,30.39,10.0,NE,6.9,-,N/A,,Clear,50,2013-01-20 13:54:00
8:54 AM,16.0,8.1,71,30.38,10.0,NE,13.8,-,N/A,,Clear,50,2013-01-20 14:54:00
9:54 AM,19.0,6.1,57,30.43,10.0,NE,8.1,-,N/A,,Clear,50,2013-01-20 15:54:00
10:54 AM,19.9,6.1,55,30.46,10.0,NNE,8.1,-,N/A,,Clear,20,2013-01-20 16:54:00
11:54 AM,21.2,6.8,54,30.41,10.0,North,6.9,-,N/A,,Overcast,10,2013-01-20 17:54:00
12:54 PM,23.0,7.0,50,30.45,10.0,NNE,10.4,-,N/A,,Overcast,20,2013-01-20 18:54:00
1:54 PM,21.9,7.0,53,30.45,10.0,NNE,8.1,-,N/A,,Overcast,20,2013-01-20 19:54:00
2:54 PM,21.2,6.8,54,30.38,10.0,NNE,8.1,-,N/A,,Overcast,20,2013-01-20 20:54:00
3:54 PM,23.0,7.0,50,30.44,10.0,NNE,11.5,-,N/A,,Overcast,20,2013-01-20 21:54:00
4:54 PM,21.9,6.1,51,30.45,10.0,NNE,11.5,-,N/A,,Mostly Cloudy,20,2013-01-20 22:54:00
5:54 PM,19.9,6.1,55,30.48,10.0,North,10.4,-,N/A,,Overcast,350,2013-01-20 23:54:00
6:54 PM,16.0,7.0,68,30.49,10.0,North,3.5,-,N/A,,Clear,360,2013-01-21 00:54:00
7:54 PM,18.0,7.0,62,30.48,10.0,Calm,Calm,-,N/A,,Clear,0,2013-01-21 01:54:00
8:54 PM,16.0,7.0,68,30.49,10.0,West,3.5,-,N/A,,Clear,280,2013-01-21 02:54:00
9:54 PM,14.0,8.1,77,30.48,10.0,Calm,Calm,-,N/A,,Clear,0,2013-01-21 03:54:00
10:54 PM,16.0,9.0,74,30.47,10.0,Calm,Calm,-,N/A,,Clear,0,2013-01-21 04:54:00
11:54 PM,16.0,10.0,77,30.47,10.0,WSW,4.6,-,N/A,,Mostly Cloudy,250,2013-01-21 05:54:00